weather.gov     
National Weather Service

Regional Weather Roundup
NWS Homepage
This page is being discontinued on March 12, 2014.
The same data is available at this site. Please update your bookmarks.
Thank you, and we apologize for the inconvenience.
Please send an email to SR-SRH.Webmaster@noaa.gov with any concerns.


Current Version
Previous Version:    01  02  03  04  05  06  07  08  09  10  11  12  13  14  15  16  17  18  19  20  21  22  23  24  25  26  27  28  29  30  
   31  32  33  34  35  36  37  38  39  40  41  42  43  44  45  46  47  48  49  50  51  52  53  54  55  56  57  58  59  60  
[Printable]
769
ASMX46 KSGX 191510
RWRMX

MEXICAN WEATHER ROUNDUP
NATIONAL WEATHER SERVICE SAN DIEGO CA
700 AM PST FRI DEC 19 2014

BAJA CALIFORNIA

CITY           SKY/WX    TMP DP  RH WIND       PRES   REMARKS
ENSENADA NW      N/A     53  32  44 N7        30.20R
LA PAZ         MOSUNNY   64  55  72 NE7       30.07
LORETO         PTCLDY    64  55  72 CALM      30.09R
MEXICALI       CLEAR     41  39  93 N5        30.23
S.J. DEL CABO  SUNNY     57  52  82 CALM      30.04
TIJUANA        PTCLDY    48  41  76 E6        30.24R

NORTHWESTERN MEXICO

CITY           SKY/WX    TMP DP  RH WIND       PRES   REMARKS
CHIHUAHUA      SUNNY     34  25  69 S3        30.23
CULIACAN       MOSUNNY   59  54  82 CALM      30.01
GUAYMAS        CLEAR     55  46  71 CALM      30.05
HERMOSILLO     CLEAR     46  43  87 CALM      30.13
JUAREZ         MOSUNNY   39  39 100 CALM      30.15
LOS MOCHIS     SUNNY     57  50  77 NW6       30.03
OBREGON        CLEAR     54  45  71 NW5       30.02

NORTHEASTERN MEXICO

CITY           SKY/WX    TMP DP  RH WIND       PRES   REMARKS
MATAMOROS      CLOUDY    68  66  94 S5        30.01
MONCLOVA       PTSUNNY   61  52  72 CALM      30.08R
MONTERREY      PTSUNNY   61  59  94 NW13      30.04R
NUEVO LAREDO   DRIZZLE   59  59 100 NE9       30.05  FOG
PIEDRAS NEGRAS FOG       61  59  94 CALM      30.09R VSB 1
REYNOSA        CLOUDY    61  59  94 N3        30.01  FOG
SALTILLO       PTSUNNY   59  43  55 S9        30.20R
TORREON        SUNNY     46  30  53 CALM      30.18R
VICTORIA       CLOUDY    63  63 100 NW7       30.02

WESTERN MEXICO

CITY           SKY/WX    TMP DP  RH WIND       PRES   REMARKS
AGUASCALIENTES MOSUNNY   54  43  66 S6        30.27
COLIMA         SUNNY     70  57  64 CALM      30.05R
DURANGO        SUNNY     39  27  60 NW3       30.25
GUADALAJARA    PTSUNNY   55  46  71 SE6       30.20
MANZANILLO     MOSUNNY   72  70  94 N8        29.90R
MAZATLAN       MOSUNNY   54  52  94 N9        29.97R
PTO. VALLARTA  SUNNY     68  63  83 CALM      29.95S
TEPIC          SUNNY     52  50  93 CALM      30.10S
URUAPAN        SUNNY     54  48  82 CALM      30.20R
ZACATECAS      MOSUNNY   46  34  61 S12       30.26R

CENTRAL MEXICO

CITY           SKY/WX    TMP DP  RH WIND       PRES   REMARKS
CUERNAVACA     SUNNY     68  50  52 CALM      30.17R
LEON           PTSUNNY   55  43  62 CALM      30.33R
MEXICO CITY    SUNNY     59  43  55 SW5       30.34R
MORELIA        SUNNY     54  45  71 CALM      30.28
PUEBLA         SUNNY     50  43  76 N6        30.34R HAZE
QUERETARO      SUNNY     50  41  71 CALM      30.30R
S. LUIS POTOSI PTSUNNY   54  48  82 CALM      30.22R
TAMPICO        PTSUNNY   73  68  83 S9        29.97R
TOLUCA         FOG       39  39 100 S3        30.41R VSB 1/4
VERACRUZ       CLOUDY    73  68  83 NW2       30.00R

SOUTHERN MEXICO

CITY           SKY/WX    TMP DP  RH WIND       PRES   REMARKS
ACAPULCO       SUNNY     77  70  78 N5        29.94R
B. DE HUATULCO MOSUNNY   75  68  78 CALM      29.99
MINATITLAN     PTSUNNY   75  70  83 CALM      29.96
OAXACA         SUNNY     57  48  72 N6        30.27R
PTO. ESCONDIDO SUNNY     75  70  83 NE7       30.05R
TAPACHULA      SUNNY     81  75  83 CALM      29.95R
TUX. GUTIERREZ MOSUNNY   68  64  88 CALM      30.06R
VILLAHERMOSA   PTSUNNY   70  68  94 CALM      30.02R FOG
ZIHUATANEJO    SUNNY     73  66  78 CALM      29.93S

YUCATAN PENINSULA

CITY           SKY/WX    TMP DP  RH WIND       PRES   REMARKS
CAMPECHE       MOSUNNY   72  66  83 E12       29.99R
CANCUN         PTSUNNY   77  70  78 NE5       30.03S
CHETUMAL       CLOUDY    73  66  78 N6        30.00R
C. DEL CARMEN  PTSUNNY   75  68  78 SE12      30.00
COZUMEL        PTSUNNY   73  70  88 NE9       30.02R
MERIDA         MOSUNNY   75  66  73 E10       30.03R

$$





U.S. Dept. of Commerce
NOAA National Weather Service
1325 East West Highway
Silver Spring, MD 20910
E-mail: w-nws.webmaster@noaa.gov
Page last modified: May 16, 2007
NATIONAL WEATHER SERVICE: for Safety, for Work, for Fun - FOR LIFE